This is the latest recevied weather packets stored in our database for station/object GOLDWX. If no packets are shown the sender has not sent any weather packets the latest 10 day(s).
| Time | Temp. | Humidity | Pressure | Rain* | Wind** | Luminosity | Snow |
|---|---|---|---|---|---|---|---|
| 1777648052 | 15° C | 31% | 1017.8 hPa | 0 mm | - | - | - |
| 1777647450 | 14.44° C | 36% | 1017.8 hPa | 0 mm | - | - | - |
| 1777647149 | 13.89° C | 36% | 1017.7 hPa | 0 mm | - | - | - |
| 1777646547 | 12.78° C | 39% | 1017.8 hPa | 0 mm | - | - | - |
| 1777646246 | 12.22° C | 42% | 1017.7 hPa | 0 mm | - | - | - |
| 1777645644 | 11.11° C | 40% | 1017.7 hPa | 0 mm | - | - | - |
| 1777645343 | 10.56° C | 43% | 1017.6 hPa | 0 mm | - | - | - |
| 1777644741 | 10° C | 46% | 1017.5 hPa | 0 mm | - | - | - |
| 1777644441 | 9.44° C | 47% | 1017.5 hPa | 0 mm | - | - | - |
| 1777643839 | 8.33° C | 52% | 1017.5 hPa | 0 mm | - | - | - |
| 1777643538 | 7.78° C | 52% | 1017.4 hPa | 0 mm | - | - | - |
| 1777642936 | 7.78° C | 52% | 1017.4 hPa | 0 mm | - | - | - |
| 1777642636 | 7.22° C | 52% | 1017.3 hPa | 0 mm | - | - | - |
| 1777642034 | 6.67° C | 52% | 1017.3 hPa | 0 mm | - | - | - |
| 1777641733 | 6.67° C | 54% | 1017.2 hPa | 0 mm | - | - | - |
| 1777641131 | 6.11° C | 54% | 1017.2 hPa | 0 mm | - | - | - |
| 1777640831 | 6.11° C | 55% | 1017.1 hPa | 0 mm | - | - | - |
| 1777640229 | 6.67° C | 54% | 1017 hPa | 0 mm | - | - | - |
| 1777639928 | 6.67° C | 53% | 1017 hPa | 0 mm | - | - | - |
| 1777639326 | 6.67° C | 52% | 1016.9 hPa | 0 mm | - | - | - |
| 1777639025 | 6.67° C | 52% | 1016.8 hPa | 0 mm | - | - | - |
| 1777638424 | 6.67° C | 53% | 1016.7 hPa | 0 mm | - | - | - |
| 1777638123 | 7.22° C | 51% | 1016.6 hPa | 0 mm | - | - | - |
| 1777637521 | 6.67° C | 53% | 1016.5 hPa | 0 mm | - | - | - |
| 1777637221 | 7.22° C | 53% | 1016.5 hPa | 0 mm | - | - | - |
* Rain since midnight (hover to see other rain measurements)
** Current wind speed in m/s (hover to see current wind gust speed)